Starlink 34029

operational
NORAD ID: 63805 Int'l Des: 2025-092 Owner: SPXS Country: US Constellation: starlink
LEOCIRCULAR

About Starlink 34029

Description loading...

Live Position

Loading 3D Globe...

Upcoming Passes

Altitude History

Altitude vs Time

uPlot chart will show altitude changes over time

Two-Line Element Set

1 63805U 25092B 25351.84612488 .00019439 00000-0 71405-3 0 9993
2 63805 43.0019 275.1113 0000998 258.2275 101.8465 15.27579973 36096
Epoch: Dec 17, 2025 • Age: 14 hours

Current Status

Altitude 483.9 km
Velocity 7.62 km/s
Sub-Earth Point -6.92°S, 21.27°E
Launch Date May 4, 2025
Age 0.6 years
Type internet

Technical Details

Classification Payload
Mass 575.00 kg
Dry Mass 530.00 kg
Total Mass 575.00 kg
Length 0.30 m
Diameter 4.10 m
Span 29.00 m
Shape Box + pan
Manufacturer SPXS
Bus Type Starlink V2MO
Phase Status In Orbit
Owner/State SPXS/US

Large Constellations

Loading constellations...